www.pogodaiklimat.ru

Погода и климат >> Архив погоды >> Россия >> Астраханская область >> Зеленга


ПОГОДА в Зеленге

  • Прогноз погоды в Зеленге
  • Монитор погоды в Зеленге

АРХИВ ПОГОДЫ в Зеленге

Время (UTC), дата Ветер
(напр.,м/с)
 
Видим.   Явления Облачность Т
(С)
Тd
(С)
f
(%)
Тe
(С)
Тes
(С)
Комфортность P
(гПа)
Po
(гПа)
Тmin
(С)
Tmax
(С)
R
(мм)
R24
(мм)
S
(см)
06 11.07 ЮВ 2 20 км ясно +29.3 +17.1 48 +33 +46 душно 1006.0 1008.5
09 11.07 ЮВ 4 20 км 6/0
[Ac trans]
+30.5 +16.1 42 +34 +42 очень
душно
1005.7 1008.2
12 11.07 ЮВ 4 20 км 3/3 600 м
[Cu med, cong]
+30.3 +22.2 62 +39 +44 очень
душно
1004.6 1007.1
15 11.07 ЮВ 3 20 км 3/3 600 м
[Sc]
+29.0 +21.4 64 +37 +38 очень
душно
1003.7 1006.3 +32.4
18 11.07 В 2 20 км 4/0
[Ac trans]
+24.9 +22.4 86 +33 +33 очень
душно
1003.9 1006.5
21 11.07 В 2 4000 м дымка 8/8 600 м
[Sc]
+23.7 +22.2 91 +31 +31 очень
душно
1003.1 1005.7
00 12.07 СВ 2 4000 м дымка 8/8 600 м
[Sc]
+22.8 +21.9 95 +31 +31 очень
душно
1001.9 1004.6
03 12.07 В 4 4000 м дымка 9/9 600 м
[Sc]
+23.1 +21.1 89 +31 +31 очень
душно
1000.8 1003.5 +22.7 200
06 12.07 ЮВ 4 20 км 4/4 600 м
[Cu med, cong]
+30.3 +24.9 73 +43 +49 опасность
перегрева
1000.8 1003.3
09 12.07 Ю 5 20 км 4/0
[Ac cast]
+32.8 +20.0 47 +39 +46 очень
душно
1000.7 1003.2
12 12.07 ЮЗ 4 20 км 3/0
[Ac trans]
+33.0 +19.4 45 +39 +45 очень
душно
1000.8 1003.3
15 12.07 С 4 20 км 4/4 600 м
[Sc]
+26.7 +20.5 69 +33 +34 очень
душно
1001.8 1004.4 +34.3
18 12.07 С 3 20 км 8/8 600 м
[Sc]
+21.6 +18.8 84 +26 +26 душно 1003.6 1006.3
21 12.07 С 5 20 км 9/9 600 м
[Sc]
+19.8 +16.7 82 +22 +22 комфорт 1006.0 1008.7
00 13.07 СЗ 6-10
{10}
4000 м дымка 10/10 600 м
[Sc]
+18.8 +16.6 87 +19 +19 1006.8 1009.5
03 13.07 С 4
{10}
20 км 10/10 600 м
[Sc]
+18.4 +15.3 82 +19 +19 1008.2 1010.9 +18.3
06 13.07 СВ 5-10
{10}
20 км пыльный позёмок 8/8 600 м
[Sc]
+20.4 +15.4 73 +23 +24 комфорт 1006.3 1009.0
09 13.07 С 4
{10}
4000 м в посл. час ливневой дождь 8/8 600 м
[Sc]
+20.7 +18.3 86 +25 +27 комфорт 1006.8 1009.5
12 13.07 СЗ 3 20 км {ливн. осадки} 8/8 600 м
[Sc]
+22.8 +16.4 67 +27 +29 душно 1007.8 1010.4
15 13.07 С 4 20 км ясно +24.8 +14.2 52 +27 +28 жарко 1007.9 1010.5 +26.0 0.8
18 13.07 СЗ 2 20 км ясно +20.4 +16.1 76 +24 +24 комфорт 1009.0 1011.7
21 13.07 С 3 20 км 6/0
[Ac trans]
+19.3 +16.0 81 +21 +21 комфорт 1008.9 1011.6
00 14.07 С 2 20 км 8/8 600 м
[Sc]
+18.4 +15.2 82 +19 +19 1008.7 1011.4
03 14.07 С 2 20 км 10/0
[Ac As]
+19.0 +15.5 80 +21 +21 комфорт 1008.9 1011.6 +18.3
06 14.07 З 1 20 км 10/10 600 м
[Sc]
+20.5 +16.7 79 +25 +25 комфорт 1009.3 1012.0
09 14.07 З 2 4000 м слаб. ливневой дождь 8/8 600 м
[Cb calv]
+21.3 +18.9 86 +26 +30 душно 1009.4 1012.1
12 14.07 З 2 4000 м слаб. ливневой дождь 8/8 600 м
[Cb calv]
+19.2 +17.4 89 +22 +24 комфорт 1010.6 1013.3
15 14.07 З 3 20 км {ливн. осадки} 4/0
[Ac trans]
+20.4 +16.4 78 +24 +24 комфорт 1010.0 1012.7 +22.3 0.8
18 14.07 ЮЗ 3 4000 м дымка {ливн. осадки} ясно +17.3 +15.6 90 +17 +17 1009.7 1012.4
21 14.07 ЮЗ 2 4000 м дымка ясно +15.2 +13.8 91 +15 +15 1008.8 1011.5
00 15.07 ЮЗ 2 4000 м дымка ясно +15.0 +13.8 93 +15 +15 1008.5 1011.2
03 15.07 ЮЗ 3 4000 м дымка ясно +16.7 +15.2 91 +16 +18 1008.8 1011.5 +14.9
06 15.07 З 2 20 км 4/0
[Ac trans]
+24.3 +17.9 67 +28 +38 душно 1009.4 1012.0
09 15.07 Ю 3 20 км 4/4 600 м
[Cu med, cong]
+28.4 +15.0 44 +31 +40 душно 1009.3 1011.9
12 15.07 Ю 2 20 км 3/3 600 м
[Cu med, cong]
+29.0 +15.4 44 +32 +39 душно 1008.8 1011.3
15 15.07 Ю 3 20 км 4/4 600 м
[Sc]
+26.3 +17.6 59 +31 +31 душно 1007.9 1010.5 +30.4
18 15.07 ЮВ 2 4000 м дымка 3/3 600 м
[Sc]
+20.5 +17.9 85 +25 +25 комфорт 1008.3 1011.0
21 15.07 СВ 4 4000 м дымка 9/9 600 м
[Sc]
+21.0 +18.3 85 +26 +26 душно 1007.8 1010.5
00 16.07 В 3 20 км 10/10 600 м
[Sc]
+20.4 +16.4 78 +24 +24 комфорт 1008.0 1010.7
03 16.07 В 5 20 км 9/9 600 м
[Sc]
+22.1 +18.4 80 +27 +27 душно 1007.3 1010.0 +20.3
06 16.07 В 5 20 км 9/9 600 м
[Sc]
+24.8 +20.9 79 +31 +32 очень
душно
1005.9 1008.5
09 16.07 В 4 4000 м {гроза} 9/9 600 м
[Sc]
+23.2 +20.3 84 +30 +32 очень
душно
1006.4 1009.0
12 16.07 СВ 3 4000 м в посл. час ливневой дождь 10/10 600 м
[Sc]
+22.0 +20.6 92 +28 +28 душно 1005.4 1008.1
15 16.07 СВ 4 4000 м в посл. час ливневой дождь 9/9 600 м
[Sc]
+21.1 +19.9 93 +26 +26 душно 1004.8 1007.5 +25.9 5
18 16.07 СВ 3 4000 м дымка {ливн. осадки} 8/8 600 м
[Sc]
+20.1 +18.3 89 +24 +24 комфорт 1005.4 1008.1
21 16.07 С 3 20 км 8/8 600 м
[Sc]
+20.8 +17.9 83 +25 +25 комфорт 1004.8 1007.5
00 17.07 С 2 20 км 3/0
[Ac lent]
+19.8 +17.0 84 +23 +23 комфорт 1004.7 1007.4
03 17.07 СВ 3 4000 м дымка 6/0
[Ac cast]
+20.1 +18.5 91 +24 +25 комфорт 1005.7 1008.4 +19.7
06 17.07 СЗ 3 20 км ясно +26.3 +18.3 61 +31 +41 душно 1005.9 1008.5
09 17.07 З 3 20 км ясно +30.2 +19.5 53 +36 +51 опасность
солнечного
удара
1005.9 1008.4
12 17.07 СЗ 2 20 км 4/0
[Ac lent]
+32.7 +20.8 50 +40 +47 очень
душно
1005.7 1008.2
15 17.07 С 3 20 км 4/0
[Ac trans]
+31.1 +19.7 51 +37 +38 очень
душно
1005.4 1007.9 +34.2
18 17.07 СЗ 1 20 км ясно +25.3 +19.4 70 +31 +31 очень
душно
1006.0 1008.6
21 17.07 С 2 20 км ясно +22.8 +19.0 79 +29 +29 очень
душно
1006.3 1009.0
00 18.07 С 2 4000 м дымка ясно +20.0 +18.2 89 +24 +24 комфорт 1006.5 1009.2
03 18.07 СВ 2 4000 м дымка 4/0
[Ac As]
+20.3 +18.4 89 +24 +26 комфорт 1007.1 1009.8 +19.9

 

Местоположение метеостанции Зеленга (Астраханская область, Россия): широта 46.18 долгота 48.62 высота над уровнем моря -22 м.

В архиве по умолчанию представлена погода в Зеленге за последнюю неделю. Архивные данные за месяц целиком и за предыдущие месяцы, начиная с января 2011 года, Вы можете получить, выбрав интересующий диапазон дат из раскрывающегося списка и нажав кнопку "Ввод!".


*Определитесь, кто Вы:
робот инопланетянин человек

Внимание! Время в таблицах - всемирное. Для получения местного времени необходимо прибавить поправку, которая равна 4 ч.

Смотрите также архив погоды в соседних городах и на ближайших метеорологических станциях:

Погода в Астрахани (Астраханская область, Россия) (50 км)
Погода в Ганюшкино (Атырауская область, Казахстан) (68 км)
Погода в Досанге (Астраханская область, Россия) (98 км)
Погода в Лимане (Астраханская область, Россия) (116 км)
Погода в Исатай (Атырауская область, Казахстан) (131 км)
Погода в Лагани (Калмыкия, Россия) (131 км)
Погода на Кулалы Острове (Мангистауская область, Казахстан) (170 км)
Погода в Харабали (Астраханская область, Россия) (171 км)
Погода в Жанауштогане (Атырауская область, Казахстан) (192 км)
Погода в Утте (Калмыкия, Россия) (201 км)

Пояснения к столбцам:

Ветер - указаны скорость ветра в м/с - средняя за 10 мин, порывы в срок и между сроками (в фигурных скобках) и направление, откуда дует ветер: С - северный, СВ - северо-восточный, В - восточный, ЮВ - юго-восточный, Ю - южный, ЮЗ - юго-западный, З - западный, СЗ - северо-западный.
Видимость - горизонтальная дальность видимости в метрах или километрах. При видимости от 1 до 10 км при отсутствии осадков обычно наблюдается дымка, при ухудшении видимости до 1 км и менее - туман. В сухую погоду видимость может ухудшаться дымом, пылью или мглою.
Явления - указаны атмосферные явления, наблюдавшиеся в срок или в последний час перед сроком; фигурными скобками обозначены явления, наблюдавшиеся между сроками (за 1-3 часа до срока); квадратными скобками обозначены град или гололедные отложения с указанием их диаметра в мм.
Облачность - указаны через наклонную черту общая и нижняя облачность в баллах и высота нижней границы облаков в метрах; квадратными скобками обозначены формы облаков: Ci - перистые, Cs - перисто-слоистые, Cc - перисто-кучевые, Ac - высококучевые, As - высокослоистые, Sc - слоисто-кучевые, Ns - слоисто-дождевые, Cu - кучевые, Cb - кучево-дождевые. Подробнее классификацию облаков см. в Атласе облаков (PDF).
T - Температура воздуха - температура, измеренная на высоте 2 м над землей.
Td - Температура точки росы - температура, при понижении до которой содержащийся в воздухе водяной пар достигнет насыщения.
f - Относительная влажность воздуха - влажноcть воздуха, измеренная на высоте 2 м над землей.
Te - Эффективная температура - температура, которую ощущает одетый по сезону человек в тени. Характеристика душности погоды. При расчете учитывается влияние влажности воздуха и скорости ветра на теплоощущения человека.
Tes - Эффективная температура на солнце - температура, которую ощущает человек, с поправкой на солнечный нагрев. Характеристика знойности погоды. Зависит от высоты солнца над горизонтом, облачности и скорости ветра. Ночью, в пасмурную погоду, а также при ветре 12 м/с и более поправка равна нулю.
P - Атмосферное давление - приведенное к уровню моря атмосферное давление.
Po - Атмосферное давление - измеренное на уровне метеостанции атмосферное давление.
Tmin - Минимальная температура - минимум температуры воздуха на высоте 2 м над землей.
Tmax - Максимальная температура - максимум температуры воздуха на высоте 2 м над землей.
R - Количество осадков - Количество выпавших осадков за период времени, мм. При наведении курсора мыши на число - период времени, за который выпало указанное количество осадков.
R24 - Количество осадков - Количество выпавших осадков за 24 часа, мм.
S - Снежный покров - Высота снежного покрова, см. При наведении курсора мыши на число - состояние снежного покрова и степень покрытия местности в баллах.